Date,TemperatureHighF,TemperatureAvgF,TemperatureLowF,DewpointHighF,DewpointAvgF,DewpointLowF,HumidityHigh,HumidityAvg,HumidityLow,PressureMaxIn,PressureMinIn,WindSpeedMaxMPH,WindSpeedAvgMPH,GustSpeedMaxMPH,PrecipitationSumIn
2013-1-1,21.2,3.9,-13.6,19.0,0.6,-17.3,92,86,75,30.38,30.12,13,2,13,0.00
2013-1-2,22.5,20.3,17.3,20.8,18.5,16.1,95,93,88,30.16,30.01,13,2,13,0.00
2013-1-3,20.7,14.8,10.8,18.4,11.0,7.5,96,85,70,30.33,30.13,14,4,14,0.00
2013-1-4,32.8,20.6,9.5,21.5,15.5,7.4,92,81,62,30.20,30.07,12,2,12,0.06
2013-1-5,27.4,15.8,5.6,19.0,12.2,3.3,94,86,67,30.16,29.92,11,1,11,0.01
2013-1-6,24.6,17.0,8.6,17.7,12.5,5.5,94,83,66,30.29,30.03,14,2,14,0.00
2013-1-7,39.1,28.9,19.0,28.9,23.7,15.8,93,81,65,30.03,29.92,16,3,16,0.03
2013-1-8,37.3,26.2,11.6,30.5,23.2,9.5,96,89,75,30.02,29.78,16,2,16,0.00
2013-1-9,35.3,30.5,23.4,30.0,24.6,20.4,92,79,64,30.39,29.93,22,4,22,0.00
2013-1-10,43.4,34.0,24.4,34.3,27.5,21.9,98,79,49,30.34,29.75,19,4,19,0.24
2013-1-11,41.2,37.4,34.8,41.2,37.2,34.3,100,99,98,29.75,29.37,14,3,14,0.05
2013-1-12,37.8,15.1,3.7,37.4,10.4,-0.6,99,81,69,30.15,29.38,22,6,22,0.00
2013-1-13,9.7,4.7,0.2,4.9,0.7,-3.1,92,83,76,30.33,30.14,11,2,11,0.00
2013-1-14,13.8,7.4,-0.1,7.2,2.9,-2.7,91,82,69,30.51,30.33,11,2,11,0.00
2013-1-15,29.1,18.5,4.0,20.2,12.6,1.5,94,79,59,30.36,29.86,16,3,16,0.00
2013-1-16,36.5,26.1,10.6,32.7,18.7,-0.8,95,74,52,30.31,29.69,18,4,18,0.01
2013-1-17,22.0,12.5,6.0,12.2,4.9,-1.9,87,71,61,30.47,30.31,12,2,12,0.00
2013-1-18,40.4,27.0,16.7,32.3,23.0,11.9,96,85,71,30.37,29.77,15,2,15,0.03
2013-1-19,38.8,21.5,1.6,33.2,16.9,-3.9,98,83,62,30.30,29.72,30,6,30,0.00
2013-1-20,9.4,2.1,-2.8,1.0,-4.3,-9.3,80,74,62,30.50,30.30,17,4,17,0.00
2013-1-21,-1.7,-6.5,-11.3,-9.4,-13.4,-17.6,80,71,62,30.47,30.38,18,4,18,0.00
2013-1-22,4.5,-5.1,-17.0,-0.9,-11.0,-21.2,85,76,66,30.54,30.36,9,2,9,0.00
2013-1-23,18.4,6.3,-5.8,10.3,-1.6,-14.5,87,70,53,30.73,30.26,23,3,23,0.00
2013-1-24,12.8,1.4,-7.2,4.8,-6.6,-15.1,72,68,64,30.79,30.25,19,4,19,0.00
2013-1-25,18.7,13.5,1.7,13.4,6.1,-3.1,83,72,59,30.41,30.01,20,5,20,0.00
2013-1-26,24.2,11.0,-4.5,15.5,4.4,-7.8,92,75,61,30.44,30.19,13,2,13,0.00
2013-1-27,33.6,29.0,23.4,31.2,23.7,15.1,97,81,67,30.19,29.85,13,2,13,0.00
2013-1-28,36.2,32.5,29.4,35.2,31.8,28.8,99,97,95,29.93,29.68,14,2,14,0.16
2013-1-29,36.9,32.8,27.4,35.1,30.7,22.4,99,92,82,29.80,29.56,16,3,16,0.08
2013-1-30,27.3,17.4,7.2,22.6,12.5,2.3,87,81,74,29.84,29.72,23,6,23,0.00
2013-1-31,7.2,1.8,-7.7,2.6,-4.3,-14.1,89,75,65,30.38,29.83,22,6,22,0.00
2013-2-1,2.4,-4.5,-14.5,-0.8,-9.9,-18.5,92,77,60,30.43,30.19,11,2,11,0.00
2013-2-2,12.3,6.0,-0.1,6.8,1.3,-3.4,89,81,65,30.30,30.07,12,1,12,0.00
2013-2-3,15.3,10.6,2.2,8.9,5.6,-1.0,89,80,66,30.17,30.07,11,2,11,0.00
2013-2-4,15.5,9.9,0.8,12.6,2.9,-4.2,90,74,59,30.17,29.81,13,2,13,0.00
2013-2-5,32.0,21.6,3.7,26.7,16.5,1.1,93,81,59,30.15,29.71,15,2,15,0.08
2013-2-6,24.9,16.6,2.9,21.8,13.7,0.4,100,88,82,30.16,30.01,14,2,14,0.00
2013-2-7,29.6,25.9,23.8,25.3,23.1,21.4,95,89,79,30.33,30.08,16,3,16,0.00
2013-2-8,30.5,22.3,8.4,21.7,17.0,6.2,96,81,59,30.44,30.26,14,2,14,0.07
2013-2-9,32.3,29.3,24.5,32.0,27.0,21.7,100,91,87,30.26,29.97,19,5,19,0.00
2013-2-10,33.0,30.1,28.2,32.5,29.0,26.4,98,96,92,29.97,29.35,19,5,19,0.00
2013-2-11,30.3,25.0,10.2,29.8,21.2,7.2,98,86,75,30.09,29.40,22,6,22,0.03
2013-2-12,35.2,23.6,8.4,25.5,19.0,6.0,94,83,66,30.09,29.85,14,3,14,0.23
2013-2-13,39.1,29.2,19.5,32.6,25.9,17.4,98,88,69,29.86,29.62,10,1,10,0.17
2013-2-14,33.4,25.4,12.1,32.4,19.3,5.0,98,79,44,30.24,29.65,20,2,20,0.14
2013-2-15,21.8,11.4,0.5,10.5,4.6,-2.9,96,74,55,30.39,30.24,14,3,14,0.00
2013-2-16,20.5,8.1,-3.5,10.9,3.0,-6.6,92,80,61,30.35,30.20,10,1,10,0.01
2013-2-17,32.7,21.9,2.7,25.3,16.4,0.3,92,80,67,30.20,29.67,22,5,22,0.00
2013-2-18,33.4,23.1,9.0,31.1,18.7,4.3,93,83,74,29.88,29.55,21,5,21,0.00
2013-2-19,13.2,6.2,-1.1,4.5,-1.4,-6.8,83,71,56,30.48,29.88,22,6,22,0.00
2013-2-20,20.0,5.1,-13.0,6.2,-2.5,-16.7,88,71,52,30.59,30.48,7,1,7,0.01
2013-2-21,24.5,15.0,0.2,18.9,8.0,-3.5,94,74,55,30.57,30.19,13,3,13,0.00
2013-2-22,32.2,25.1,21.0,26.0,21.4,18.8,94,86,72,30.19,29.91,14,2,14,0.12
2013-2-23,35.8,25.5,12.8,28.9,21.9,10.5,95,86,71,30.02,29.89,8,1,8,0.10
2013-2-24,35.4,18.8,3.5,25.5,14.5,1.0,100,84,66,30.18,30.01,8,0,8,0.06
2013-2-25,37.4,24.7,11.1,27.2,19.8,9.2,100,83,63,30.18,30.09,11,1,11,0.04
2013-2-26,38.4,26.3,11.3,30.2,22.2,9.4,97,85,71,30.13,29.96,16,2,16,0.00
2013-2-27,44.9,33.3,26.7,30.1,26.5,23.5,92,77,51,30.09,29.92,19,4,19,0.00
2013-2-28,31.7,28.5,21.0,25.7,22.3,16.1,85,77,69,30.29,30.09,12,2,12,0.00
2013-3-1,34.7,24.8,12.5,22.7,18.0,9.2,87,76,58,30.43,30.29,13,2,13,0.00
2013-3-2,32.6,18.5,1.3,18.3,10.5,-1.7,95,73,43,30.43,30.24,11,1,11,0.00
2013-3-3,36.7,27.7,20.9,16.9,13.4,9.7,78,56,37,30.24,30.03,16,4,16,0.00
2013-3-4,27.1,25.5,24.5,23.4,19.5,11.3,94,79,52,30.09,30.00,20,5,20,0.00
2013-3-5,33.4,26.6,21.4,28.9,24.1,18.8,95,90,79,30.37,30.03,14,2,14,0.12
2013-3-6,33.9,21.5,5.4,23.0,17.1,3.1,93,83,62,30.48,30.37,8,1,8,0.08
2013-3-7,36.2,19.8,0.8,22.3,12.9,-1.9,95,76,55,30.48,30.35,15,2,15,0.10
2013-3-8,40.1,29.7,17.1,31.2,24.7,14.2,94,82,66,30.39,30.13,12,2,12,0.08
2013-3-9,37.7,35.9,34.1,37.3,35.0,30.9,99,97,81,30.14,29.71,14,2,14,0.57
2013-3-10,34.8,33.1,29.2,34.5,29.7,24.7,99,87,81,30.02,29.83,23,5,23,0.00
2013-3-11,33.7,28.4,22.0,26.1,23.5,18.9,92,82,72,29.94,29.80,15,3,15,0.00
2013-3-12,32.6,25.4,19.5,22.1,17.3,12.0,89,72,50,30.27,29.88,21,4,21,0.00
2013-3-13,33.4,22.1,8.0,21.2,15.4,5.9,93,77,54,30.44,30.27,11,2,11,0.00
2013-3-14,41.9,31.6,23.9,31.3,26.1,19.2,94,81,63,30.30,30.05,10,2,10,0.14
2013-3-15,35.5,31.1,23.5,32.7,28.6,21.3,96,90,79,30.06,29.88,15,3,15,0.10
2013-3-16,27.9,20.3,9.0,21.3,13.6,2.6,91,76,58,30.32,29.97,15,3,15,0.21
2013-3-17,28.7,16.6,1.4,20.4,7.4,-2.6,86,68,51,30.35,29.92,18,4,18,0.00
2013-3-18,29.7,22.7,12.7,28.7,18.2,7.0,96,83,71,29.92,29.62,24,7,24,0.00
2013-3-19,26.1,14.8,7.0,11.6,4.7,-0.5,80,65,44,30.28,29.87,20,7,20,0.03
2013-3-20,25.4,13.9,5.1,9.4,3.2,-2.0,77,62,47,30.30,30.19,20,5,20,0.01
2013-3-21,31.7,14.9,-3.8,15.5,6.0,-7.0,89,69,48,30.22,30.13,9,1,9,0.04
2013-3-22,38.7,20.3,0.0,20.6,11.2,-2.9,92,70,44,30.18,30.12,11,1,11,0.04
2013-3-23,39.2,28.0,11.3,23.5,18.4,8.7,93,69,48,30.23,30.15,8,1,8,0.00
2013-3-24,36.7,31.2,27.5,27.0,24.7,22.4,93,77,63,30.16,30.04,19,3,19,0.01
2013-3-25,42.2,31.9,20.2,25.0,21.3,15.7,83,66,46,30.28,30.11,18,3,18,0.00
2013-3-26,41.4,32.0,24.0,28.4,22.7,19.6,83,69,47,30.35,30.27,10,2,10,0.00
2013-3-27,46.0,31.4,16.0,24.1,20.3,13.9,94,67,38,30.40,30.34,9,1,9,0.00
2013-3-28,49.3,33.1,16.8,26.9,22.1,14.9,95,68,36,30.40,30.32,13,1,13,0.00
2013-3-29,53.7,40.9,28.3,39.6,33.0,24.9,91,74,55,30.33,30.08,14,3,14,0.01
2013-3-30,56.8,44.6,34.6,45.8,39.8,32.3,97,84,61,30.08,29.86,12,2,12,0.48
2013-3-31,41.5,34.5,22.7,33.1,25.8,15.7,95,72,42,30.15,29.81,24,5,24,0.00
2013-4-1,37.2,26.1,15.8,20.1,16.1,11.8,84,67,44,30.33,30.15,19,4,19,0.00
2013-4-2,40.7,27.4,13.8,20.8,16.9,11.7,94,68,40,30.42,30.31,13,2,13,0.00
2013-4-3,46.9,33.1,14.0,35.1,23.4,12.0,96,70,41,30.45,30.06,22,5,22,0.00
2013-4-4,52.3,43.2,28.4,35.5,31.4,23.4,88,65,43,30.21,30.01,18,4,18,0.00
2013-4-5,43.6,32.9,19.6,33.8,25.6,17.2,94,77,40,30.29,29.93,19,3,19,0.00
2013-4-6,50.7,41.1,35.6,45.0,35.7,32.0,95,82,60,29.93,29.56,23,4,23,0.19
2013-4-7,50.7,41.0,35.5,39.9,35.3,31.8,95,81,61,29.97,29.78,13,2,13,0.18
2013-4-8,45.2,41.3,38.4,42.4,39.7,37.9,99,94,87,30.10,29.72,11,2,11,0.06
2013-4-9,48.6,39.3,34.6,38.2,30.8,24.5,92,72,51,30.23,30.04,25,6,25,0.00
2013-4-10,41.8,37.8,34.1,27.2,24.8,22.6,68,59,51,30.23,29.96,24,6,24,0.00
2013-4-11,37.0,33.3,29.3,33.7,29.4,21.8,96,86,55,29.98,29.75,24,7,24,0.29
2013-4-12,38.6,32.3,28.1,31.9,28.9,26.6,96,88,69,29.89,29.74,13,2,13,0.33
2013-4-13,36.7,31.4,21.3,30.0,27.2,19.3,97,85,68,30.00,29.86,9,1,9,0.23
2013-4-14,35.4,31.8,20.8,34.9,28.8,19.0,98,89,74,30.00,29.53,23,4,23,0.40
2013-4-15,39.0,36.5,33.4,36.7,31.5,28.8,100,82,75,30.00,29.53,24,7,24,0.20
2013-4-16,48.2,38.3,31.7,32.9,30.1,27.8,89,73,51,30.36,29.99,14,3,14,0.00
2013-4-17,42.2,36.7,29.9,34.1,31.2,27.0,97,80,70,30.37,29.99,19,4,19,0.00
2013-4-18,34.1,32.9,31.7,33.0,32.1,31.0,98,97,94,30.01,29.57,19,3,19,0.05
2013-4-19,40.1,33.1,24.6,31.8,27.7,16.8,99,82,58,30.04,29.55,25,3,25,0.77
2013-4-20,41.6,30.1,13.1,23.3,16.9,11.2,96,62,31,30.35,30.04,12,1,12,0.28
2013-4-21,47.5,39.8,32.0,45.2,36.0,20.9,98,86,59,30.36,30.03,24,5,24,0.18
2013-4-22,46.5,37.5,32.4,37.6,32.7,29.0,100,84,59,30.28,30.17,20,4,20,0.00
2013-4-23,46.7,35.6,25.2,31.6,27.1,22.4,97,74,43,30.22,30.10,15,3,15,0.46
2013-4-24,51.4,36.0,22.1,36.6,29.7,20.5,97,81,42,30.12,29.93,24,4,24,0.03
2013-4-25,51.9,41.4,30.3,34.3,31.5,28.5,94,70,45,30.23,30.02,15,3,15,0.00
2013-4-26,75.8,57.3,44.2,47.8,40.6,32.0,80,56,28,30.14,29.96,14,3,14,0.01
2013-4-27,75.8,57.6,33.4,48.7,38.0,31.4,96,55,23,30.14,29.87,15,2,15,0.00
2013-4-28,82.3,65.1,51.9,55.9,50.2,47.3,88,61,35,29.87,29.63,24,5,24,0.01
2013-4-29,76.4,61.9,44.0,57.4,44.5,36.6,86,57,26,29.82,29.51,18,2,18,0.00
2013-4-30,72.0,64.3,54.6,61.7,48.1,30.3,85,59,25,29.94,29.36,20,5,20,0.00
2013-5-1,55.0,43.0,34.8,38.9,32.9,29.0,96,68,53,30.53,29.95,17,3,17,0.07
2013-5-2,50.3,40.9,35.3,31.5,29.0,26.3,76,63,45,30.59,30.47,21,5,21,0.00
2013-5-3,41.1,36.0,31.0,36.0,30.5,25.2,93,81,63,30.47,30.22,18,5,18,0.06
2013-5-4,45.9,38.9,33.7,42.4,36.9,32.1,100,92,86,30.24,30.17,14,3,14,0.11
2013-5-5,69.3,50.9,38.4,52.9,44.1,37.1,95,80,54,30.23,30.09,10,2,10,0.00
2013-5-6,77.1,59.7,40.4,52.8,47.2,39.4,98,68,37,30.14,30.00,13,1,13,0.00
2013-5-7,79.7,64.0,46.5,54.8,49.3,44.5,96,64,30,30.06,29.93,14,1,14,0.00
2013-5-8,78.4,63.6,54.4,59.9,54.1,49.1,94,74,38,30.00,29.94,14,1,14,0.09
2013-5-9,59.2,53.1,43.5,56.0,47.7,30.8,92,82,60,30.15,29.95,22,4,22,0.00
2013-5-10,69.7,52.8,33.4,47.5,32.7,25.4,84,52,20,30.17,29.88,13,2,13,0.00
2013-5-11,55.7,46.9,34.1,43.6,30.5,24.6,74,54,35,30.20,29.89,26,6,26,0.00
2013-5-12,62.1,45.1,26.2,30.5,25.5,19.9,92,52,22,30.27,30.11,17,2,17,0.00
2013-5-13,72.4,53.4,31.2,49.8,37.8,25.9,92,59,35,30.14,29.64,25,3,25,0.03
2013-5-14,97.0,70.4,44.3,58.6,48.6,35.3,96,54,16,29.68,29.44,25,4,25,0.00
2013-5-15,84.8,68.5,47.6,53.3,48.4,43.6,90,52,25,29.89,29.66,19,2,19,0.00
2013-5-16,86.0,69.7,47.2,51.8,45.6,33.8,92,48,26,29.92,29.79,18,3,18,0.00
2013-5-17,68.3,60.9,56.6,57.6,51.8,32.6,95,75,27,29.97,29.87,19,4,19,0.07
2013-5-18,80.4,66.1,55.3,69.7,61.4,54.6,100,86,64,29.97,29.75,18,3,18,0.43
2013-5-19,83.2,69.6,63.8,70.4,65.8,63.5,99,88,62,29.77,29.53,19,3,19,0.94
2013-5-20,73.5,66.5,58.9,64.0,62.2,57.6,100,87,67,29.56,29.47,22,4,22,0.16
2013-5-21,58.7,51.1,46.4,57.6,50.4,45.6,99,97,94,29.75,29.51,15,3,15,0.31
2013-5-22,53.0,48.4,44.5,51.0,47.3,43.8,99,96,89,30.04,29.73,20,4,20,0.13
2013-5-23,67.4,53.6,42.6,43.8,39.5,33.2,97,63,32,30.35,30.04,18,3,18,0.00
2013-5-24,69.7,54.8,35.7,54.5,41.5,33.1,97,64,35,30.40,30.21,18,2,18,0.43
2013-5-25,66.7,58.8,52.9,53.9,51.4,48.1,98,78,57,30.27,30.21,23,4,23,0.00
2013-5-26,62.2,57.5,51.7,50.8,46.3,40.2,84,67,47,30.23,30.03,21,3,21,0.00
2013-5-27,62.9,59.2,56.5,56.6,52.9,48.7,91,80,70,30.06,29.83,18,3,18,0.00
2013-5-28,62.7,58.1,54.5,60.1,56.0,52.9,97,93,86,29.84,29.71,12,1,12,0.03
2013-5-29,80.7,68.0,55.3,71.0,63.0,54.4,99,85,58,29.82,29.60,16,2,16,0.15
2013-5-30,77.2,69.2,64.7,68.0,65.4,63.8,99,88,65,29.64,29.48,25,4,25,0.12
2013-5-31,76.6,67.6,57.7,64.0,59.2,55.5,99,77,51,29.53,29.47,23,4,23,0.11
2013-6-1,73.7,59.0,51.5,62.3,54.3,45.9,100,85,64,29.95,29.52,20,2,20,0.07
2013-6-2,70.4,57.5,45.7,51.6,46.2,42.8,94,69,41,30.09,29.95,14,2,14,0.00
2013-6-3,69.8,58.4,41.5,52.0,47.2,40.7,100,70,42,30.08,29.95,9,1,9,0.00
2013-6-4,63.5,58.2,54.6,60.4,51.9,44.8,97,80,61,30.09,29.97,20,2,20,0.47
2013-6-5,62.9,56.7,51.5,60.5,55.6,50.9,100,96,86,30.05,29.95,12,1,12,0.08
2013-6-6,58.6,53.4,49.5,54.5,51.7,49.2,100,94,85,30.05,29.98,10,1,10,0.02
2013-6-7,65.2,57.2,49.9,57.2,53.1,49.1,97,87,69,30.07,29.92,8,0,8,0.00
2013-6-8,72.2,62.9,50.8,59.7,55.7,50.3,100,79,58,29.92,29.87,16,2,16,0.00
2013-6-9,63.1,59.8,57.0,61.6,58.1,55.5,100,94,80,29.89,29.77,25,3,25,0.42
2013-6-10,75.6,65.1,58.6,66.0,61.9,57.8,100,90,70,29.85,29.80,8,0,8,0.00
2013-6-11,79.8,66.5,52.4,71.1,63.5,52.1,100,91,70,29.88,29.77,9,0,9,0.02
2013-6-12,78.0,66.0,59.5,68.3,59.8,54.1,98,81,57,29.93,29.76,12,0,12,0.39
2013-6-13,81.5,68.2,54.0,64.1,57.3,51.6,93,71,46,30.09,29.93,12,0,12,0.00
2013-6-14,80.0,69.8,55.4,65.1,60.2,52.8,93,72,57,30.07,29.83,26,3,26,0.00
2013-6-15,79.3,71.3,56.4,72.6,66.0,54.3,95,84,66,29.86,29.80,17,1,17,0.03
2013-6-16,87.7,69.2,51.1,62.0,56.0,50.6,100,69,30,29.90,29.81,17,1,17,0.02
2013-6-17,84.0,69.3,55.0,65.5,59.2,51.8,100,73,42,30.02,29.83,13,1,13,0.00
2013-6-18,79.0,64.8,48.7,63.2,55.1,45.1,90,72,51,30.09,30.00,10,1,10,0.00
2013-6-19,86.4,71.8,55.5,67.8,61.4,54.4,97,72,46,30.04,29.91,13,2,13,0.00
2013-6-20,89.5,77.6,66.0,73.0,68.0,62.0,92,74,50,29.96,29.80,17,2,17,0.00
2013-6-21,83.7,73.2,64.7,71.9,67.8,63.3,98,84,63,30.04,29.68,29,2,29,1.22
2013-6-22,83.7,72.2,65.8,72.6,68.6,65.4,99,89,66,29.95,29.80,14,1,14,0.22
2013-6-23,83.3,73.5,64.6,72.6,68.8,63.1,100,86,61,29.84,29.63,18,3,18,2.24
2013-6-24,84.8,72.8,58.2,74.6,67.3,57.6,100,84,62,29.87,29.76,12,1,12,0.00
2013-6-25,89.7,76.4,62.6,75.7,69.7,62.0,99,81,57,29.79,29.66,15,2,15,0.00
2013-6-26,89.9,79.7,69.3,78.3,72.7,65.8,100,81,58,29.77,29.60,14,1,14,0.00
2013-6-27,88.3,76.7,64.4,71.3,64.7,59.8,99,70,41,29.78,29.74,19,2,19,0.00
2013-6-28,82.0,70.6,62.6,68.6,63.3,59.3,97,79,60,29.79,29.73,18,3,18,0.17
2013-6-29,79.8,69.4,58.6,66.2,61.9,53.9,99,79,54,29.99,29.74,14,2,14,0.32
2013-6-30,84.8,69.1,51.7,64.5,58.0,50.9,99,72,39,30.11,29.99,14,1,14,0.00
2013-7-1,87.3,71.5,54.6,67.6,60.5,54.0,100,72,39,30.17,30.10,12,1,12,0.00
2013-7-2,86.7,70.9,54.5,63.0,58.0,51.5,98,68,37,30.15,30.03,11,0,11,0.00
2013-7-3,88.0,70.3,52.9,64.6,58.2,52.1,100,71,35,30.05,29.92,10,0,10,0.00
2013-7-4,89.3,74.5,58.2,69.8,61.6,56.0,98,68,38,29.94,29.81,18,2,18,0.00
2013-7-5,88.5,79.8,68.6,69.9,65.2,59.8,78,62,47,29.85,29.74,21,4,21,0.00
2013-7-6,87.1,79.0,72.9,78.7,69.3,64.4,88,73,66,29.82,29.75,13,2,13,0.00
2013-7-7,92.8,79.9,68.5,78.5,72.1,67.3,98,78,60,29.86,29.76,12,1,12,0.00
2013-7-8,87.0,73.1,62.1,75.6,68.7,61.5,99,87,65,29.99,29.85,7,1,7,0.00
2013-7-9,87.5,75.8,68.4,77.4,70.9,66.2,99,86,65,29.93,29.66,17,2,17,0.56
2013-7-10,83.0,71.3,58.3,67.5,61.4,56.6,96,73,46,30.03,29.89,16,2,16,0.00
2013-7-11,85.3,71.7,54.1,67.2,60.5,53.5,100,71,45,30.09,29.93,13,2,13,0.00
2013-7-12,89.5,79.4,70.2,70.3,64.6,60.3,73,61,49,29.96,29.82,25,6,25,0.00
2013-7-13,78.9,74.2,68.5,73.3,68.7,60.4,99,84,62,30.03,29.86,14,1,14,1.76
2013-7-14,85.6,75.8,69.6,74.2,68.4,62.6,96,78,57,30.15,30.01,1,0,1,0.00
2013-7-15,87.6,77.1,64.5,73.8,69.8,64.1,100,80,56,30.20,30.12,11,1,12,0.00
2013-7-16,92.2,81.9,72.4,78.5,74.1,70.3,96,79,56,30.16,30.11,15,2,15,0.00
2013-7-17,92.9,81.2,68.9,78.1,73.7,68.3,100,80,54,30.20,30.05,14,1,14,0.07
2013-7-18,93.0,83.1,72.2,77.4,74.5,71.9,99,77,54,30.05,29.68,23,3,23,0.01
2013-7-19,86.3,79.0,67.1,74.3,68.6,63.1,95,72,48,29.86,29.65,18,2,18,0.05
2013-7-20,79.8,70.1,61.3,65.9,62.7,58.9,99,79,54,29.94,29.83,12,1,12,0.00
2013-7-21,83.4,70.1,58.0,72.6,63.6,52.8,91,80,66,29.93,29.75,12,1,12,0.00
2013-7-22,88.2,75.3,63.8,76.0,67.4,58.1,94,78,50,29.83,29.63,16,2,16,0.00
2013-7-23,78.8,67.5,56.1,61.5,57.6,54.1,98,73,48,30.00,29.83,15,1,15,0.00
2013-7-24,79.7,66.0,54.2,65.3,59.8,52.9,98,82,53,30.06,29.93,7,0,7,0.00
2013-7-25,79.0,70.0,59.0,70.2,65.2,58.4,100,85,66,29.95,29.86,10,1,10,0.03
2013-7-26,70.0,62.6,55.3,63.9,57.4,50.1,97,84,64,30.09,29.88,19,3,19,0.10
2013-7-27,64.8,57.2,50.6,56.4,51.8,49.4,97,83,63,30.09,29.94,19,2,19,0.02
2013-7-28,75.8,61.6,52.1,61.5,53.7,48.6,95,76,53,30.06,29.97,12,1,12,0.00
2013-7-29,77.8,64.1,47.2,62.6,56.3,46.7,100,78,52,30.12,30.05,12,1,12,0.00
2013-7-30,71.3,65.3,60.3,67.5,63.6,59.6,100,94,84,30.09,30.02,6,0,6,0.12
2013-7-31,80.8,67.4,56.8,68.7,60.6,53.1,100,81,47,30.06,29.96,14,1,14,0.00
2013-8-1,82.4,66.7,48.4,65.9,57.7,47.6,100,76,46,30.02,29.84,9,1,9,0.00
2013-8-2,79.1,66.6,51.8,63.2,57.4,50.9,100,75,43,30.03,29.84,12,1,12,0.00
2013-8-3,80.5,64.5,47.9,61.1,54.2,47.1,100,73,44,30.20,30.03,14,1,14,0.00
2013-8-4,78.0,63.6,50.3,61.7,55.7,49.2,99,78,48,30.23,29.97,10,1,10,0.00
2013-8-5,83.4,69.7,60.5,71.9,64.9,57.6,99,86,60,30.01,29.76,11,1,11,0.23
2013-8-6,83.3,66.4,53.1,72.9,62.2,52.6,100,87,66,29.83,29.63,15,1,15,0.08
2013-8-7,80.2,66.9,54.8,61.5,57.9,53.3,100,77,43,30.01,29.76,11,1,11,0.00
2013-8-8,77.5,65.1,52.7,64.9,59.1,51.8,100,83,57,30.04,29.96,11,1,11,0.00
2013-8-9,78.8,65.6,52.5,62.7,56.8,52.0,100,76,47,30.11,29.98,15,1,15,0.00
2013-8-10,77.9,64.3,50.5,62.8,56.9,49.3,99,79,50,30.18,30.07,7,0,7,0.00
2013-8-11,83.4,69.5,56.3,68.2,63.2,55.2,98,83,54,30.08,29.97,6,0,6,0.01
2013-8-12,82.5,68.8,55.7,64.1,59.3,55.0,100,75,44,30.07,29.98,14,2,14,0.00
2013-8-13,79.5,64.8,51.7,60.2,54.3,49.6,100,73,38,30.19,30.06,11,1,11,0.00
2013-8-14,79.1,63.0,47.3,60.2,54.5,46.6,100,77,43,30.19,30.08,10,0,10,0.00
2013-8-15,80.9,64.5,49.7,66.2,58.1,49.2,100,82,52,30.11,30.06,10,0,10,0.00
2013-8-16,81.7,66.9,53.2,64.8,58.9,52.7,100,79,47,30.17,30.11,14,1,14,0.00
2013-8-17,81.9,67.6,52.7,62.9,58.6,52.2,100,76,50,30.18,30.08,18,2,18,0.00
2013-8-18,82.8,69.8,54.1,63.6,59.7,53.4,99,73,47,30.11,29.96,19,2,19,0.00
2013-8-19,87.0,76.7,67.9,74.3,68.2,61.9,84,75,62,29.99,29.85,16,2,16,0.00
2013-8-20,89.7,79.4,69.8,77.5,72.7,67.7,96,81,65,29.87,29.80,15,2,15,0.00
2013-8-21,91.5,78.8,70.4,80.1,72.5,62.1,99,82,51,29.97,29.77,12,1,12,0.00
2013-8-22,87.7,74.0,59.9,63.8,57.7,51.7,84,60,33,30.11,29.97,15,1,15,0.00
2013-8-23,88.2,67.5,55.2,70.3,49.0,-99.9,89,64,46,30.13,29.99,17,-79,17,0.00
2013-8-24,90.3,80.1,70.8,76.5,72.0,67.7,91,77,60,30.02,29.86,25,5,25,0.00
2013-8-25,95.4,85.2,77.8,80.1,76.2,72.9,86,75,59,29.94,29.85,17,4,17,0.00
2013-8-26,95.8,85.4,76.7,80.3,77.8,75.2,95,79,58,29.92,29.76,16,2,16,0.00
2013-8-27,94.9,83.2,71.8,81.1,77.0,69.8,98,83,61,29.88,29.72,12,1,12,0.00
2013-8-28,89.2,76.2,66.9,77.3,71.0,66.5,100,85,59,29.97,29.87,11,0,11,0.00
2013-8-29,92.3,81.1,68.1,80.2,74.5,67.2,99,82,59,29.97,29.78,13,2,13,0.00
2013-8-30,86.5,75.7,67.8,72.8,69.1,63.6,96,81,58,29.91,29.77,12,2,12,0.00
2013-8-31,89.5,73.2,59.9,73.2,66.5,59.0,99,81,55,29.87,29.67,19,2,19,0.16
2013-9-1,73.2,67.4,57.6,64.8,61.4,54.1,94,82,69,29.98,29.71,16,2,16,0.00
2013-9-2,71.7,59.0,49.7,59.3,54.4,48.6,98,86,60,30.10,29.97,8,0,8,0.00
2013-9-3,80.9,61.3,44.0,65.3,55.6,43.5,100,84,55,30.09,29.97,10,1,10,0.01
2013-9-4,86.9,69.5,55.0,70.7,62.2,54.4,100,80,54,30.15,30.00,8,1,8,0.00
2013-9-5,87.1,71.8,57.9,68.5,61.7,53.1,92,73,47,30.20,30.06,10,1,10,0.00
2013-9-6,92.0,79.3,69.2,72.6,70.2,67.5,98,76,50,30.06,29.81,18,2,18,0.00
2013-9-7,94.7,78.7,65.6,75.2,69.7,62.0,100,76,48,30.00,29.81,17,2,17,0.00
2013-9-8,71.6,65.9,62.4,65.6,60.6,54.5,90,83,73,30.02,29.86,12,1,12,0.01
2013-9-9,91.4,75.5,65.8,78.9,71.5,62.1,99,88,62,29.86,29.59,12,1,12,0.07
2013-9-10,86.0,72.8,62.9,71.5,66.4,60.6,99,83,48,29.95,29.72,14,1,14,0.06
2013-9-11,87.2,71.3,58.1,66.7,59.4,52.6,100,71,35,30.05,29.95,14,2,14,0.00
2013-9-12,76.1,62.3,47.4,59.5,52.0,45.1,98,72,42,30.24,30.05,22,2,22,0.00
2013-9-13,74.2,55.3,39.4,52.0,46.8,38.6,100,77,41,30.29,30.07,9,0,9,0.00
2013-9-14,70.8,56.7,44.8,62.4,52.7,44.3,99,88,55,30.09,29.90,12,1,12,0.58
2013-9-15,69.7,58.4,45.6,59.7,55.2,44.3,100,90,64,30.33,29.89,14,2,14,0.20
2013-9-16,69.8,51.1,35.2,48.0,43.0,34.7,100,78,38,30.42,30.26,11,1,11,0.01
2013-9-17,68.9,56.7,44.3,58.8,52.2,42.7,98,86,68,30.26,29.93,20,3,20,0.01
2013-9-18,74.8,67.2,59.4,71.0,66.1,58.8,100,97,88,29.93,29.66,13,2,13,0.07
2013-9-19,78.0,69.2,61.4,72.6,67.7,57.7,100,95,77,29.76,29.57,24,1,24,1.38
2013-9-20,68.0,58.2,48.9,57.8,53.9,48.1,97,86,59,29.92,29.75,15,2,15,0.00
2013-9-21,66.8,52.7,43.0,53.7,47.9,41.9,99,86,56,30.01,29.91,8,0,8,0.00
2013-9-22,74.6,58.4,42.5,60.5,52.3,41.9,99,82,60,29.98,29.83,22,3,22,0.01
2013-9-23,75.2,63.9,54.6,59.1,55.3,51.4,89,75,52,29.92,29.84,23,4,23,0.00
2013-9-24,79.0,62.5,51.9,61.8,55.3,50.5,97,79,47,29.96,29.90,12,1,12,0.00
2013-9-25,76.3,61.8,50.9,59.8,54.9,50.4,100,80,51,29.96,29.84,18,2,18,0.00
2013-9-26,82.3,68.4,56.1,64.9,59.4,53.6,93,74,54,29.90,29.78,30,4,30,0.00
2013-9-27,83.3,73.7,66.9,68.7,64.8,62.2,87,75,57,29.87,29.74,29,5,29,0.00
2013-9-28,75.4,61.1,44.1,64.9,56.2,43.1,98,84,68,29.91,29.57,21,4,21,0.24
2013-9-29,77.6,59.0,41.7,55.5,48.2,41.3,100,72,39,29.95,29.76,23,2,23,0.01
2013-9-30,80.0,67.9,59.8,60.7,53.9,48.6,73,61,45,29.76,29.55,22,4,22,0.00
2013-10-1,76.7,65.1,44.6,56.6,49.4,40.7,93,61,29,29.97,29.53,12,2,19,0.00
2013-10-2,76.8,55.8,39.1,54.7,46.3,38.3,100,77,31,30.04,29.85,19,2,19,0.29
2013-10-3,58.1,56.0,54.9,57.7,55.3,53.8,99,98,95,29.95,29.85,18,2,18,0.10
2013-10-4,59.3,56.4,54.1,56.6,54.7,53.0,99,94,88,30.00,29.85,20,4,20,0.13
2013-10-5,59.0,54.2,44.5,59.0,53.6,43.9,100,98,90,29.87,29.72,17,1,17,0.04
2013-10-6,52.9,48.1,40.9,51.8,47.5,40.4,100,98,93,29.86,29.68,15,1,15,0.08
2013-10-7,70.1,44.7,37.7,53.2,24.7,-99.9,100,70,42,29.98,29.84,12,-139,12,0.00
2013-10-8,77.1,39.5,46.1,53.6,-3.1,-99.9,97,46,41,29.96,29.78,27,-345,27,0.00
2013-10-9,77.0,25.2,64.6,57.9,-45.9,-99.9,69,19,49,30.00,29.89,14,-652,18,0.00
2013-10-10,79.0,24.2,62.0,60.7,-48.2,-99.9,75,19,48,30.00,29.82,19,-669,19,0.00
2013-10-11,74.1,17.5,67.6,61.1,-61.4,-99.9,73,15,59,29.83,29.55,31,-755,31,0.00
2013-10-12,55.2,15.3,48.2,46.9,-56.7,-99.9,93,24,71,30.18,29.64,22,-700,22,0.00
2013-10-13,63.9,29.6,37.5,46.1,-20.3,-99.9,97,39,42,30.44,30.18,13,-434,13,0.01
2013-10-14,53.5,46.2,36.1,47.6,41.7,35.2,99,85,65,30.42,29.98,20,2,20,0.49
2013-10-15,51.6,49.1,45.3,51.5,48.7,44.8,100,99,97,29.98,29.68,22,3,22,0.48
2013-10-16,59.0,46.8,34.7,45.1,41.8,33.6,98,85,53,29.97,29.86,16,1,16,0.03
2013-10-17,51.7,44.4,34.5,48.5,42.7,33.7,99,94,76,29.89,29.80,13,1,13,0.60
2013-10-18,55.0,42.0,34.2,42.0,29.9,-99.9,100,75,48,30.00,29.85,15,-58,15,0.03
2013-10-19,51.4,40.0,29.6,41.7,37.1,28.6,98,90,58,29.85,29.71,14,1,14,0.02
2013-10-20,39.1,26.0,28.5,38.6,1.9,-99.9,99,75,96,29.92,29.66,10,-237,10,0.21
2013-10-21,42.4,16.8,26.0,29.9,-38.7,-99.9,92,35,57,30.00,29.92,17,-516,17,0.00
2013-10-22,43.6,32.6,21.5,35.2,29.6,20.3,100,90,67,30.08,30.00,13,0,13,0.02
2013-10-23,39.4,34.1,31.4,33.8,29.0,24.4,97,82,63,30.16,30.03,16,1,16,0.02
2013-10-24,43.6,37.5,32.6,34.2,30.7,24.9,91,77,62,30.34,30.15,18,1,18,0.00
2013-10-25,58.0,43.7,26.7,46.4,36.7,25.5,97,78,60,30.35,29.79,23,3,23,0.00
2013-10-26,50.3,42.4,34.7,43.0,33.2,29.3,82,70,57,30.13,29.81,22,3,22,0.00
2013-10-27,61.6,42.3,28.8,41.0,33.0,26.8,95,72,44,30.19,29.84,18,2,18,0.00
2013-10-28,46.7,36.3,28.8,32.2,26.6,21.3,89,70,39,30.48,30.19,19,3,19,0.00
2013-10-29,37.6,35.1,29.6,36.3,31.1,26.6,96,85,77,30.47,30.14,15,1,15,0.05
2013-10-30,48.2,43.3,37.3,48.2,43.0,36.3,100,99,96,30.14,29.68,7,0,7,0.06
2013-10-31,48.1,42.7,40.2,48.1,42.3,39.4,100,98,95,29.68,29.41,12,1,12,0.01
2013-11-1,54.1,42.9,35.5,41.7,38.4,32.9,97,85,59,29.87,29.43,14,1,14,0.00
2013-11-2,53.5,38.9,29.9,38.1,33.1,28.7,97,82,50,30.12,29.87,9,1,9,0.00
2013-11-3,56.4,45.0,32.2,39.7,35.6,31.2,97,72,49,30.14,29.88,32,6,32,0.00
2013-11-4,49.4,42.8,29.2,45.7,38.2,28.4,97,85,64,30.17,29.82,18,3,19,0.37
2013-11-5,42.6,33.0,25.0,36.8,30.6,24.3,100,91,65,30.28,30.09,11,1,11,0.16
2013-11-6,42.2,29.4,25.7,34.1,13.8,-99.9,97,75,69,30.19,30.08,9,-120,9,0.53
2013-11-7,39.7,19.8,19.0,34.0,-11.8,-99.9,100,64,71,30.28,30.19,11,-297,11,0.05
2013-11-8,-200.0,0.0,200.0,-99.9,-99.9,-99.9,0,0,100,30.24,29.56,0,-999,0,0.05
2013-11-9,-200.0,0.0,200.0,-99.9,-99.9,-99.9,0,0,100,30.19,29.59,0,-999,0,0.00
2013-11-10,42.4,8.9,38.0,33.1,-70.7,-99.9,79,16,68,30.31,30.13,15,-777,15,0.00
2013-11-11,31.0,6.7,23.6,16.6,-72.9,-99.9,65,13,50,30.79,30.15,19,-761,19,0.00
2013-11-12,30.3,7.5,21.2,14.2,-69.0,-99.9,74,15,49,30.83,30.46,13,-725,13,0.00
2013-11-13,53.1,13.2,35.8,37.5,-62.8,-99.9,68,16,53,30.46,29.86,21,-718,21,0.00
2013-11-14,55.4,21.7,29.9,42.6,-32.5,-99.9,93,38,61,29.86,29.74,10,-508,10,0.00
2013-11-15,57.2,29.0,29.4,42.3,-17.7,-99.9,94,41,56,29.85,29.62,15,-410,15,0.00
2013-11-16,46.1,7.1,43.8,39.8,-78.0,-99.9,84,12,74,29.63,29.24,16,-841,16,0.00
2013-11-17,-200.0,0.0,200.0,-99.9,-99.9,-99.9,0,0,100,29.81,29.29,0,-999,0,0.00
2013-11-18,38.3,8.2,30.9,26.4,-71.4,-99.9,76,15,59,30.30,29.81,19,-770,19,0.00
2013-11-19,47.6,13.9,24.4,33.1,-53.9,-99.9,90,25,54,30.29,29.90,26,-639,26,0.00
2013-11-20,-200.0,0.0,200.0,-99.9,-99.9,-99.9,0,0,100,30.02,29.88,0,-999,0,0.00
2013-11-21,-200.0,0.0,200.0,-99.9,-99.9,-99.9,0,0,100,30.52,30.02,0,-999,0,0.00
2013-11-22,35.4,8.0,23.3,14.7,-71.9,-99.9,64,11,34,30.70,30.49,10,-746,15,0.00
2013-11-23,21.7,4.9,14.3,8.6,-73.4,-99.9,75,14,43,30.89,30.70,6,-746,14,0.00
2013-11-24,33.9,7.8,21.6,18.6,-69.6,-99.9,65,15,51,30.77,29.97,16,-735,23,0.00
2013-11-25,-200.0,0.0,200.0,-99.9,-99.9,-99.9,0,0,100,30.01,29.91,0,-999,0,0.00